Powrót do katalogu

STARLINK-6172

AktywnyŁącznośćVLEO
NORAD 57130·PAYLOAD·🇺🇸 United States

Wystrzelony Jun 23, 2023 z Cape Canaveral Space Force Station

Loading…

Następne Przeloty (najbliższe 24 godziny)

TLE

ŚwieżeSource: CelesTrak SupGP

Epoka: Sep 14, 2026, 20:45 UTC

1 57130C 23090AF  26257.86506944 -.00019233  00000+0 -69666-3 0  2576
2 57130  43.0007 292.9446 0002184 272.4824 211.6367 15.27584869    14

Śledź STARLINK-6172 w czasie rzeczywistym z AllMySat

Download on the App Store